Location: Beaulieu
(50.1185°N, 5.5689°E)
Time: 07:30:03
(UTC+00:00)

Daily predictions for brighter satellites

Satellite Brightness Start Highest point End
(mag) Time Altitude Azimuth Time Altitude Azimuth Time Altitude Azimuth
Meteor 2-14 Rocket 4.5 16:47:05 10° N 16:53:14 67° ENE 16:59:18 10° SSE
Cosmos 2219 3.5 16:48:24 10° NNW 16:53:57 47° NE 16:59:30 10° SE
CZ-2C R/B 4.3 16:50:05 10° ESE 16:54:36 24° ENE 16:59:00 10° N
SMAP 3.1 16:50:15 10° SSE 16:54:54 85° ENE 16:59:36 10° NNW
Cosmos 1943 Rocket 4.0 16:52:44 10° W 16:57:19 26° NW 17:01:53 10° NNE
Cosmos 1726 Rocket 4.2 16:53:46 10° SSE 16:57:42 35° E 17:01:43 10° NNE
Cosmos 1758 Rocket 3.6 16:54:19 10° N 16:58:45 86° E 17:03:08 10° S
NOSS 2-1 (E) 4.5 16:55:43 10° W 16:58:50 33° NW 17:02:23 10° NNE
Meteor 2-21 4.4 16:53:44 10° N 16:59:57 78° E 17:06:03 10° SSE
USA 307 3.2 16:55:59 10° WNW 17:00:13 55° N 17:04:26 10° E
Cosmos 1328 4.0 16:56:21 10° NNW 17:00:19 78° W 17:04:15 10° S
Cosmos 1726 4.3 16:59:03 10° SW 17:02:20 29° WNW 17:05:38 10° N
FALCON 9 DEB 4.3 17:01:18 10° SSW 17:04:03 25° SE 17:06:44 10° E
Cosmos 2228 3.1 17:00:35 10° S 17:04:42 53° E 17:08:53 10° NNE
USA 308 3.2 17:00:50 10° WNW 17:05:05 56° NNE 17:09:18 10° E
CZ-4B R/B 1.6 17:02:00 10° NNE 17:05:07 42° E 17:08:08 10° S
YAOGAN 6 3.4 17:01:35 10° S 17:05:11 57° W 17:08:51 10° NNW
Cosmos 1939 Rocket 3.4 17:02:15 10° SE 17:05:53 36° ENE 17:09:30 10° N
ATLAS 5 CENTAUR R/B 3.3 17:03:50 10° W 17:07:35 27° NNW 17:11:50 10° NE
Cosmos 1452 Rocket 4.1 17:05:17 10° SW 17:10:29 60° WNW 17:15:45 10° NNE
Helios 1A Rocket 3.6 17:09:25 10° SE 17:13:07 33° ENE 17:16:48 10° N
Cosmos 1606 Rocket 3.6 17:08:56 10° S 17:13:14 62° E 17:17:37 10° NNE
FALCON 9 DEB 4.0 17:12:43 10° SSW 17:15:38 32° SE 17:17:56 14° E
GENESIS II 4.3 17:11:46 10° SSW 17:15:46 64° SE 17:19:46 10° NE
CZ-4B R/B 3.9 17:11:32 10° S 17:17:03 60° WSW 17:22:32 10° NNW
ARGOS 4.4 17:14:12 10° ESE 17:18:09 21° ENE 17:22:06 10° N
SKYMED 2 4.2 17:15:11 10° NNE 17:19:13 35° E 17:23:12 10° SSE
Okean-O 3.2 17:15:33 10° SE 17:19:34 36° ENE 17:23:39 10° N
Cosmos 1689 Rocket 3.1 17:18:00 10° NE 17:20:29 25° E 17:22:55 10° SSE
Cosmos 1656 4.4 17:17:16 10° SSE 17:22:07 32° ESE 17:27:04 10° NE
Cosmos 1745 Rocket 4.5 17:18:05 10° N 17:23:54 37° ENE 17:29:43 10° SE
Cosmos 1400 Rocket 3.3 17:21:09 10° SSE 17:24:59 39° E 17:28:48 10° NNE
H-2A R/B 3.0 17:22:54 10° ESE 17:27:32 30° ENE 17:32:14 10° N
Cosmos 2227 Rocket 2.2 17:22:23 10° NNW 17:28:00 61° ENE 17:33:37 10° SE
Cosmos 2058 3.7 17:25:12 10° N 17:28:46 28° ENE 17:32:20 10° SE
Meteor 2-16 Rocket 4.4 17:22:51 10° N 17:28:59 83° E 17:35:06 10° SSE
GEOS 3 Rocket 4.1 17:24:33 10° ESE 17:29:33 46° NE 17:34:42 10° NW
CZ-4 R/B 1.8 17:26:17 10° SE 17:29:51 36° ENE 17:33:26 10° N
Cosmos 1892 3.2 17:26:33 10° N 17:30:12 37° ENE 17:33:49 10° SE
Cosmos 2263 Rocket 3.7 17:29:05 10° N 17:33:08 19° NE 17:35:33 15° ENE
Cosmos 1408 3.5 17:31:12 10° NNE 17:34:21 27° ENE 17:37:15 11° SE
BREEZE-M DEB (TANK) 4.3 17:30:56 10° W 17:34:47 79° N 17:46:14 15° ENE
BREEZE-M R/B 3.8 17:25:20 10° W 17:35:09 82° S 17:37:09 20° E
CSL-04 Rocket 4.3 17:30:51 10° SE 17:35:50 35° ENE 17:40:47 10° N
Cosmos 1244 Rocket 4.4 17:30:21 10° N 17:36:35 79° E 17:42:50 10° SSE
NOSS 3-4 (A) 4.4 17:33:06 10° NW 17:39:18 39° NNE 17:44:11 18° E
NOSS 3-4 (C) 4.4 17:33:12 10° NW 17:39:23 38° NNE 17:44:16 18° E
CZ-4C R/B 3.8 17:34:12 10° NW 17:39:40 29° NNE 17:44:24 15° ENE
Cosmos 1953 Rocket 3.9 17:36:41 10° NNW 17:41:05 69° W 17:45:29 10° S
Cosmos 1300 2.8 17:39:31 10° SSW 17:43:19 79° W 17:47:10 10° N
Cosmos 2058 Rocket 3.0 17:42:10 10° S 17:46:37 69° E 17:51:08 10° NNE
Cosmos 1697 Rocket 3.5 17:42:05 10° SSE 17:46:45 27° ESE 17:49:37 18° ENE
SL-4 R/B 1.7 17:43:40 10° W 17:47:12 69° N 17:49:04 27° E
Cosmos 1331 Rocket 4.2 17:42:12 10° SSW 17:47:20 71° WNW 17:52:31 10° NNE
IRS-1C Rocket 4.2 17:43:23 10° SSE 17:48:39 84° WSW 17:53:58 10° NNW
CZ-2D R/B 3.1 17:44:58 10° SSE 17:48:45 76° ENE 17:52:35 10° N
SeaSat 1 3.1 17:46:27 20° E 17:49:06 34° NE 17:53:34 10° NNW
Cosmos 1346 Rocket 3.0 17:45:16 10° N 17:49:08 45° ENE 17:52:58 10° SSE
USA 305 2.9 17:46:44 10° WNW 17:51:04 78° NNE 17:53:26 26° ESE
Cosmos 1825 3.0 17:48:02 10° N 17:51:21 28° ENE 17:51:38 28° E
Cosmos 44 3.2 17:50:21 10° SW 17:54:54 85° NW 17:59:04 14° NE
USA 215 3.6 17:51:39 20° ENE 17:56:06 53° N 18:02:24 10° WNW
Cosmos 1315 Rocket 3.5 17:52:43 10° SSE 17:56:11 30° E 17:56:19 30° E
USA 306 2.8 17:53:09 10° WNW 17:57:28 82° NNE 17:59:35 29° ESE
SAR-Lupe-4 3.8 17:55:01 10° N 17:58:36 69° WNW 18:02:10 10° SSW
ERS-2 3.6 17:55:12 10° N 17:58:38 39° WNW 18:02:02 10° SW
BREEZE-M R/B 3.5 17:57:18 10° W 18:01:06 85° S 18:05:18 24° E
ATLAS 2AS CENTAUR R/B 3.4 17:54:12 10° NW 18:01:28 42° NNE 18:05:17 24° E
Cosmos 968 Rocket 3.4 17:58:11 10° NNW 18:03:27 89° ENE 18:08:38 10° SSE
Cosmos 1340 3.2 18:00:18 10° NNW 18:04:02 61° W 18:07:46 10° S
HJ-1C 4.1 18:07:27 36° NE 18:07:27 36° NE 18:10:01 10° N
COSMO-SKYMED 1 2.6 18:03:02 10° NNE 18:07:24 80° WNW 18:11:45 10° SSW
Cosmos 2297 Rocket 2.7 18:02:16 10° NW 18:07:52 63° WSW 18:13:26 10° SSE
MOS 1 Rocket 3.7 18:03:42 10° NNE 18:08:06 40° E 18:12:45 10° SSE
Cosmos 1076 Rocket 3.5 18:04:59 10° N 18:09:10 52° ENE 18:11:35 23° SE
Cosmos 1980 Rocket 3.7 18:05:13 10° SSE 18:07:19 18° SE 18:07:19 18° SE
In-Cosmos 22 Rocket 4.4 18:04:50 10° NNW 18:10:11 72° W 18:15:36 10° S
Aureole 3 Rocket 3.5 18:08:09 10° SSW 18:12:14 74° WNW 18:17:59 10° N
Cosmos 2315 Rocket 4.4 18:10:18 10° SSE 18:15:50 35° E 18:21:22 10° NNE
CSL-04 Debris 4.1 18:10:43 10° SSE 18:16:08 71° ENE 18:21:36 10° NNW
S3M 3.9 18:10:10 10° S 18:16:11 65° E 18:22:19 10° NNE
Cosmos 1302 Rocket 4.2 18:13:04 10° SSW 18:18:20 73° WNW 18:23:39 10° NNE
SL-08 ROCKET BODY 4.5 18:13:43 10° N 18:19:51 84° W 18:26:01 10° S
Lacrosse 5 2.7 18:17:04 10° WNW 18:21:49 38° N 18:23:30 30° NE
FALCON 9 DEB 3.1 18:18:39 10° WNW 18:22:04 65° NNE 18:22:07 65° NNE
FALCON 9 DEB 2.9 18:20:24 10° WSW 18:23:30 80° SW 18:23:30 80° SW
YAOGAN 1 2.7 18:19:32 10° S 18:23:51 73° WSW 18:28:12 10° NNW
Cosmos 1486 Rocket 4.5 18:18:37 10° NNW 18:23:55 62° WSW 18:29:08 10° S
ERBS 3.8 18:21:15 10° NW 18:24:02 25° N 18:24:02 25° N
Aureole 3 4.3 18:23:05 10° SW 18:25:57 35° WNW 18:28:45 10° N
Cosmos 1417 Rocket 4.5 18:21:01 10° S 18:27:17 87° W 18:33:41 10° N
FALCON 9 DEB 3.1 18:24:38 10° WSW 18:27:30 69° W 18:27:30 69° W
Cosmos 1812 Rocket 3.6 18:26:42 10° S 18:35:45 - NNE 18:30:36 55° ESE
Cosmos 1455 2.2 18:28:01 10° S 18:31:13 61° SSE 18:31:13 61° SSE
Cosmos 1503 Rocket 4.0 18:28:32 10° NNW 18:33:47 85° WSW 18:37:11 22° SSE
CZ-2C R/B 3.5 18:28:14 10° S 18:34:00 70° WSW 18:39:38 10° NNW
Meteor 2-3 Rocket 4.3 18:29:46 10° N 18:34:43 38° ENE 18:34:43 38° ENE
CZ-4B R/B 4.5 18:35:10 10° NNW 18:37:02 15° WNW 18:38:52 10° W
DMSP B5D1-3 4.4 18:33:27 10° NNE 18:38:38 77° ESE 18:43:47 10° S
FALCON 9 DEB 3.9 18:36:41 10° WSW 18:39:09 48° W 18:39:09 48° W
USA 307 3.0 18:36:08 10° WNW 18:40:24 64° SSW 18:40:52 59° S
USA 308 3.1 18:41:00 10° WNW 18:45:13 60° SSW 18:45:31 58° S
Meteor 2-10 Rocket 3.6 18:39:58 10° SSW 18:45:16 76° WNW 18:50:24 10° N
Cosmos 1354 Rocket 4.0 18:40:04 10° NNW 18:45:21 79° WSW 18:47:53 32° SSE
Cosmos 2082 4.0 18:41:16 10° NNW 18:46:58 67° WSW 18:50:45 22° S
Meteor 2-15 Rocket 4.5 18:47:30 10° SSW 18:53:40 79° W 18:59:51 10° N
ATLAS 5 CENTAUR R/B 3.8 18:50:29 10° NW 18:53:51 18° N 18:55:01 17° NNE
Cosmos 1992 Rocket 4.0 18:52:06 10° SSW 18:57:19 80° WNW 18:59:48 32° NNE
Cosmos 2151 4.1 18:53:35 10° N 18:56:03 34° N 18:56:03 34° N
ARGOS 3.2 18:54:41 26° S 18:57:50 78° WSW 19:03:19 10° NNW
SL-08 RB Rocket 4.1 19:00:38 54° N 19:00:38 54° N 19:04:10 10° NNW
Cosmos 2369 3.5 18:56:33 10° SSW 19:02:16 82° ESE 19:03:11 64° NE
CZ-4 R/B 3.7 19:01:56 10° SW 19:05:01 22° W 19:08:05 10° NW
Cosmos 1656 4.4 19:00:07 10° SW 19:05:33 51° NW 19:10:04 15° NNE
Cosmos 1844 Rocket 4.4 19:02:13 10° NNW 19:05:18 20° NNE 19:05:18 20° NNE
H-2A R/B 2.9 19:01:26 10° S 19:06:42 52° W 19:12:03 10° NNW
Ariane Rocket 3.4 19:07:51 52° N 19:07:51 52° N 19:11:50 10° N
GEOS 3 Rocket 4.3 19:05:41 36° S 19:07:32 51° SW 19:12:48 10° NW
Geosat 4.0 19:06:43 60° N 19:07:36 78° WNW 19:12:36 10° SW
Cosmos 2227 Rocket 4.2 19:07:03 10° NW 19:11:40 26° WSW 19:16:15 10° SSW
Cosmos 2263 Rocket 2.4 19:12:24 10° NNW 19:17:16 60° N 19:17:16 60° N
SeaSat 1 3.2 19:26:16 48° SW 19:26:30 48° WSW 19:31:18 10° NW
Cosmos 1825 4.3 19:23:37 10° NNW 19:26:28 25° W 19:26:28 25° W
SL-4 R/B 4.1 19:23:10 10° WNW 19:24:38 23° W 19:24:38 23° W
CZ-4C R/B 3.0 19:22:54 10° NW 19:29:36 56° NE 19:29:36 56° NE
Cosmos 1697 Rocket 3.1 19:24:50 10° SW 19:30:22 58° NW 19:31:25 50° NNW
NOSS 3-4 (A) 3.7 19:23:58 10° NW 19:30:54 83° SW 19:31:39 73° SSE
NOSS 3-4 (C) 3.7 19:24:05 10° NW 19:31:00 83° SW 19:31:43 74° SSE
Cosmos 2184 Rocket 4.5 19:26:28 10° N 19:31:04 49° NNE 19:31:04 49° NNE
DEBRIS 4.2 19:23:35 10° WSW 19:36:50 72° SSW 19:36:50 72° SSW
USA 215 3.1 19:39:00 86° NNW 19:39:00 86° NNW 19:45:27 10° WNW
NOSS 3-3 (A) 4.2 19:35:44 10° SW 19:41:41 68° NW 19:41:47 68° NW
NOSS 3-3 (C) 4.1 19:35:50 10° SW 19:41:48 68° NW 19:41:53 68° NW
SJ 16-02 4.0 19:40:39 10° NNW 19:41:07 13° N 19:41:07 13° N
Cosmos 1980 Rocket 4.0 19:47:23 10° SW 19:49:11 21° SW 19:49:11 21° SW
ATLAS 2AS CENTAUR R/B 2.8 19:45:33 10° NW 19:52:43 76° W 19:52:43 76° W
COSMOS 2455 4.5 19:51:54 10° NNW 19:55:08 24° N 19:55:08 24° N
Lacrosse 5 3.7 20:00:22 10° NW 20:02:41 27° NW 20:02:41 27° NW
CZ-4C R/B 4.4 21:11:27 10° NW 21:14:47 30° WNW 21:14:47 30° WNW
